DW5247 Lemo FI current weather conditions

sailwx.info

Wind from 023 at 3 knots gusting 6

Air temperature -0.0° C
Dewpoint -2.4° C

Last reported at 2015-Mar-28 04:42 UTC.
Time now 2015-Mar-28 05:20 UTC

Location: N 62°41' E 029°49'.
View on Google Maps.

See reports from other nearby stations

  
Tides and Currents Weather Stations Pressure Air Temp Water Temp Dewpoint Dewpoint Depression Visibility Wind Speed Wind Dir Waves Ship Positions
date/time (UTC)wind fromknots sea level pressurealtimeterstation pressurevisibilityair tempwater tempwave heightnotes
2015-Mar-28 04:42 023 3 gusting 6 -0.0
2015-Mar-28 04:37 023 3 gusting 6 0.6
2015-Mar-28 04:32 090 3 gusting 6 0.6
2015-Mar-28 04:27 045 3 gusting 5 0.6
2015-Mar-28 04:22 023 3 gusting 5 0.6
2015-Mar-28 04:17 068 3 gusting 3 0.6
2015-Mar-28 04:12 045 3 gusting 9 0.6
2015-Mar-28 04:07 045 3 gusting 9 0.6
2015-Mar-28 04:02 045 3 gusting 5 0.6
2015-Mar-28 03:57 023 3 gusting 5 0.6
2015-Mar-28 03:52 068 3 gusting 5 0.6
2015-Mar-28 03:47 023 3 gusting 5 0.6
2015-Mar-28 03:42 023 3 gusting 6 0.6
2015-Mar-28 03:37 023 3 gusting 6 0.6
2015-Mar-28 03:32 023 3 gusting 7 0.6
2015-Mar-28 03:27 045 4 gusting 7 0.6
2015-Mar-28 03:22 023 4 gusting 7 0.6
2015-Mar-28 03:17 023 4 gusting 7 0.6
2015-Mar-28 03:12 068 3 gusting 6 0.6
2015-Mar-28 03:07 068 3 gusting 6 0.6
2015-Mar-28 03:02 113 4 gusting 6 -0.0
2015-Mar-28 02:57 045 4 gusting 6 -0.0
2015-Mar-28 02:52 045 3 gusting 6 0.6
2015-Mar-28 02:47 045 3 gusting 6 0.6
2015-Mar-28 02:42 023 3 gusting 6 -0.0
2015-Mar-28 02:37 045 3 gusting 6 -0.0
2015-Mar-28 02:32 045 3 gusting 6 -0.0
2015-Mar-28 02:27 090 4 gusting 7 -0.0
2015-Mar-28 02:22 023 4 gusting 7 -0.0
2015-Mar-28 02:17 045 4 gusting 7 -0.0
2015-Mar-28 02:12 023 4 gusting 6 -0.0
2015-Mar-28 02:07 023 4 gusting 6 -0.0
2015-Mar-28 02:02 023 3 gusting 6 -0.0
2015-Mar-28 01:57 338 3 gusting 6 -0.0
2015-Mar-28 01:52 045 4 gusting 7 -0.0
2015-Mar-28 01:47 045 4 gusting 7 -0.0
2015-Mar-28 01:42 023 4 gusting 7 -0.0
2015-Mar-28 01:37 023 4 gusting 5 0.6
2015-Mar-28 01:32 045 3 gusting 6 0.6
2015-Mar-28 01:27 023 3 gusting 6 0.6
2015-Mar-28 01:22 068 4 gusting 6 0.6
2015-Mar-28 01:17 023 4 gusting 6 0.6
2015-Mar-28 01:12 045 4 gusting 6 1.1
2015-Mar-28 01:07 045 4 gusting 11 1.1
2015-Mar-28 01:02 1.1
2015-Mar-28 00:57 1.1
2015-Mar-28 00:52 023 3 gusting 8 1.1
2015-Mar-28 00:47 315 3 gusting 8 1.1
2015-Mar-28 00:42 023 3 gusting 6 1.1
2015-Mar-28 00:37 090 3 gusting 6 1.7
2015-Mar-28 00:32 068 4 gusting 12 1.7
2015-Mar-28 00:27 045 4 gusting 12 1.7
2015-Mar-28 00:22 045 4 gusting 12 1.7
2015-Mar-28 00:17 068 4 gusting 6 1.7
2015-Mar-28 00:12 023 4 gusting 6 1.7
2015-Mar-28 00:07 045 4 gusting 6 1.7
2015-Mar-28 00:02 068 4 gusting 6 1.7
2015-Mar-27 23:57 045 4 gusting 6 1.7
2015-Mar-27 23:52 113 4 gusting 7 1.7
2015-Mar-27 23:47 090 3 gusting 7 1.7
2015-Mar-27 23:42 045 4 gusting 7 1.7
2015-Mar-27 23:37 113 3 gusting 6 1.7
2015-Mar-27 23:32 068 3 gusting 6 1.7
2015-Mar-27 23:27 045 3 gusting 6 1.7
2015-Mar-27 23:22 090 3 gusting 6 1.7
2015-Mar-27 23:17 023 3 gusting 6 1.7
2015-Mar-27 23:12 023 2 gusting 3 1.7
2015-Mar-27 23:07 023 2 gusting 3 1.7
2015-Mar-27 23:02 045 2 gusting 6 1.7
2015-Mar-27 22:57 315 3 gusting 6 1.7
2015-Mar-27 22:52 023 3 gusting 6 1.7
2015-Mar-27 22:47 090 3 gusting 5 1.7
2015-Mar-27 22:42 023 2 gusting 6 2.2
2015-Mar-27 22:37 023 3 gusting 7 2.2
2015-Mar-27 22:32 023 3 gusting 7 2.2
2015-Mar-27 22:27 045 4 gusting 7 2.2
2015-Mar-27 22:22 023 4 gusting 6 2.2
2015-Mar-27 22:17 023 4 gusting 6 2.2
2015-Mar-27 22:12 023 4 gusting 7 2.2
2015-Mar-27 22:07 023 4 gusting 7 2.2
2015-Mar-27 21:57 023 4 gusting 10 2.2
2015-Mar-27 21:52 023 4 gusting 10 2.2
2015-Mar-27 21:47 023 4 gusting 8 2.2
2015-Mar-27 21:42 023 4 gusting 8 2.2
2015-Mar-27 21:37 023 4 gusting 6 2.2
2015-Mar-27 21:32 023 3 gusting 10 2.2
2015-Mar-27 21:27 023 4 gusting 10 2.2
2015-Mar-27 21:22 023 5 gusting 12 2.2
2015-Mar-27 21:17 090 5 gusting 12 2.2
2015-Mar-27 21:12 023 5 gusting 12 2.2
2015-Mar-27 21:07 068 4 gusting 5 2.2
2015-Mar-27 21:02 045 3 gusting 6 2.2
2015-Mar-27 20:57 023 5 gusting 6 2.2
2015-Mar-27 20:52 2.2
2015-Mar-27 20:47 068 3 gusting 5 2.2
2015-Mar-27 20:42 045 3 gusting 8 2.2
2015-Mar-27 20:37 023 4 gusting 11 2.2
2015-Mar-27 20:32 045 5 gusting 11 2.2
2015-Mar-27 20:27 045 5 gusting 7 2.2
2015-Mar-27 20:22 045 5 gusting 7 2.2
2015-Mar-27 20:17 045 5 gusting 7 2.2
2015-Mar-27 20:12 023 4 gusting 7 2.2
2015-Mar-27 20:07 045 4 gusting 9 2.2
2015-Mar-27 20:02 113 5 gusting 9 2.2
2015-Mar-27 19:57 068 5 gusting 9 2.2
2015-Mar-27 19:52 045 4 gusting 6 2.2
2015-Mar-27 19:47 023 4 gusting 6 2.2
2015-Mar-27 19:42 248 4 gusting 7 2.2
2015-Mar-27 19:37 023 4 gusting 7 2.2
2015-Mar-27 19:32 045 4 gusting 7 2.2
2015-Mar-27 19:27 068 4 gusting 6 2.2
2015-Mar-27 19:22 068 5 gusting 6 2.2
2015-Mar-27 19:17 113 5 gusting 6 2.2
2015-Mar-27 19:12 068 4 gusting 6 2.2
2015-Mar-27 19:07 023 4 gusting 6 2.2
2015-Mar-27 19:02 068 4 gusting 6 2.2
2015-Mar-27 18:57 338 4 gusting 6 2.8
2015-Mar-27 18:52 045 4 gusting 6 2.2
2015-Mar-27 18:47 068 4 gusting 8 2.2
2015-Mar-27 18:42 023 4 gusting 8 2.2
2015-Mar-27 18:37 068 4 gusting 12 2.8
2015-Mar-27 18:32 023 4 gusting 12 2.8
2015-Mar-27 18:27 090 4 gusting 7 2.8
2015-Mar-27 18:22 023 4 gusting 7 2.8
2015-Mar-27 18:17 315 4 gusting 7 2.8
2015-Mar-27 18:12 023 5 gusting 7 2.8
2015-Mar-27 18:07 045 4 gusting 6 2.8
2015-Mar-27 18:02 045 3 gusting 7 2.8
2015-Mar-27 17:57 023 3 gusting 7 2.8
2015-Mar-27 17:52 023 4 gusting 11 2.8
2015-Mar-27 17:47 045 5 gusting 11 2.8
2015-Mar-27 17:42 023 5 gusting 8 2.8
2015-Mar-27 17:37 023 4 gusting 8 2.8
2015-Mar-27 17:32 045 3 gusting 5 2.8
2015-Mar-27 17:27 023 3 gusting 6 2.8
2015-Mar-27 17:22 045 4 gusting 8 2.8
2015-Mar-27 17:17 338 5 gusting 8 2.8
2015-Mar-27 17:12 023 5 gusting 6 2.8
2015-Mar-27 17:07 2.8
2015-Mar-27 17:02 045 4 gusting 6 2.8
2015-Mar-27 16:57 023 4 gusting 6 2.8
2015-Mar-27 16:52 045 4 gusting 6 2.8
2015-Mar-27 16:47 090 3 gusting 6 2.8
2015-Mar-27 16:42 045 3 gusting 6 2.8
2015-Mar-27 16:37 023 3 gusting 6 2.8
2015-Mar-27 16:32 045 3 gusting 6 2.8
2015-Mar-27 16:27 023 3 gusting 6 2.8
2015-Mar-27 16:22 023 3 gusting 6 2.8
2015-Mar-27 16:17 045 3 gusting 6 2.8
2015-Mar-27 16:12 045 3 gusting 6 2.8
2015-Mar-27 16:07 068 3 gusting 6 2.8
2015-Mar-27 16:02 338 3 gusting 6 3.3
2015-Mar-27 15:57 023 3 gusting 6 3.3
2015-Mar-27 15:52 068 3 gusting 6 3.3
2015-Mar-27 15:47 023 3 gusting 5 3.3
2015-Mar-27 15:42 3.3
2015-Mar-27 15:37 113 3 gusting 6 3.3
2015-Mar-27 15:32 023 3 gusting 6 3.3
2015-Mar-27 15:27 023 3 gusting 8 3.3
2015-Mar-27 15:22 068 4 gusting 8 3.3
2015-Mar-27 15:17 023 5 gusting 8 3.3
2015-Mar-27 15:12 023 5 gusting 8 3.3
2015-Mar-27 15:07 045 4 gusting 8 3.3
2015-Mar-27 15:02 045 4 gusting 8 3.3
2015-Mar-27 14:57 338 4 gusting 8 3.3
2015-Mar-27 14:52 023 4 gusting 8 3.3
2015-Mar-27 14:47 113 4 gusting 8 3.3
2015-Mar-27 14:42 023 5 gusting 12 3.3
2015-Mar-27 14:37 023 6 gusting 12 3.3
2015-Mar-27 14:32 023 4 gusting 9 3.3
2015-Mar-27 14:27 023 4 gusting 9 3.3
2015-Mar-27 14:22 045 5 gusting 9 3.3
2015-Mar-27 14:17 023 6 gusting 8 3.3
2015-Mar-27 14:12 023 6 gusting 11 3.3
2015-Mar-27 14:07 023 6 gusting 11 3.3
2015-Mar-27 14:02 338 6 gusting 11 3.3
2015-Mar-27 13:57 045 5 gusting 7 3.3
2015-Mar-27 13:52 023 5 gusting 9 3.3
2015-Mar-27 13:47 045 5 gusting 9 3.3
2015-Mar-27 13:42 3.3
2015-Mar-27 13:37 045 6 gusting 12 3.3
2015-Mar-27 13:32 3.3
2015-Mar-27 13:27 023 6 gusting 8 3.3
2015-Mar-27 13:22 023 6 gusting 10 3.3
2015-Mar-27 13:17 023 6 gusting 10 3.3
2015-Mar-27 13:12 045 6 gusting 10 3.3
2015-Mar-27 13:07 068 6 gusting 7 3.3
2015-Mar-27 13:02 045 4 gusting 13 3.3
2015-Mar-27 12:57 023 4 gusting 13 3.3
2015-Mar-27 12:52 023 6 gusting 13 3.3
2015-Mar-27 12:47 023 7 gusting 9 3.3
2015-Mar-27 12:42 023 6 gusting 9 3.3
2015-Mar-27 12:37 023 6 gusting 9 3.3
2015-Mar-27 12:32 023 6 gusting 9 3.3
2015-Mar-27 12:27 045 6 gusting 7 3.3
2015-Mar-27 12:22 023 6 gusting 10 3.3
2015-Mar-27 12:17 023 6 gusting 10 3.3
2015-Mar-27 12:12 045 6 gusting 10 3.3
2015-Mar-27 12:07 045 6 gusting 8 3.3
2015-Mar-27 12:02 023 5 gusting 11 3.3
2015-Mar-27 11:57 023 6 gusting 11 3.3
2015-Mar-27 11:52 023 6 gusting 9 3.3
2015-Mar-27 11:47 023 6 gusting 9 3.3
2015-Mar-27 11:42 023 6 gusting 11 3.3
2015-Mar-27 11:37 045 6 gusting 11 3.3
2015-Mar-27 11:32 068 6 gusting 8 3.3
2015-Mar-27 11:27 023 6 gusting 8 3.3
2015-Mar-27 11:22 023 6 gusting 9 3.3
2015-Mar-27 11:17 090 6 gusting 9 3.3
2015-Mar-27 11:12 023 6 gusting 10 3.3
2015-Mar-27 11:07 023 6 gusting 10 3.3
2015-Mar-27 11:02 2.8
2015-Mar-27 10:57 045 6 gusting 9 2.8
2015-Mar-27 10:52 338 6 gusting 11 2.8
2015-Mar-27 10:47 023 6 gusting 11 2.8
2015-Mar-27 10:42 023 6 gusting 11 2.8
2015-Mar-27 10:37 023 6 gusting 6 2.8
2015-Mar-27 10:32 023 5 gusting 11 2.2
2015-Mar-27 10:27 315 5 gusting 11 2.2
2015-Mar-27 10:22 045 6 gusting 11 2.2
2015-Mar-27 10:17 023 6 gusting 5 2.2
2015-Mar-27 10:12 338 5 gusting 6 2.2
2015-Mar-27 10:07 338 5 gusting 10 2.2
2015-Mar-27 10:02 023 5 gusting 10 1.7
2015-Mar-27 09:57 1.7
2015-Mar-27 09:52 023 5 gusting 9 1.7
2015-Mar-27 09:47 023 4 gusting 6 1.7
2015-Mar-27 09:42 045 5 gusting 9 1.7
2015-Mar-27 09:37 045 5 gusting 9 1.7
2015-Mar-27 09:32 023 5 gusting 10 1.1
2015-Mar-27 09:27 090 6 gusting 11 1.1
2015-Mar-27 09:22 023 6 gusting 11 1.1
2015-Mar-27 09:17 315 5 gusting 11 1.1
2015-Mar-27 09:12 023 5 gusting 14 1.1
2015-Mar-27 09:07 270 6 gusting 14 1.1
2015-Mar-27 09:02 068 7 gusting 14 1.1
2015-Mar-27 08:57 045 7 gusting 14 1.1
2015-Mar-27 08:52 023 6 gusting 9 0.6
2015-Mar-27 08:47 0.6
2015-Mar-27 08:42 045 6 gusting 15 0.6
2015-Mar-27 08:37 023 6 gusting 15 0.6
2015-Mar-27 08:32 023 6 gusting 15 0.6
2015-Mar-27 08:27 023 6 gusting 8 0.6
2015-Mar-27 08:22 023 5 gusting 8 -0.0
2015-Mar-27 08:17 023 5 gusting 8 -0.0
2015-Mar-27 08:12 023 5 gusting 7 -0.0
2015-Mar-27 08:07 023 5 gusting 9 -0.0
2015-Mar-27 08:02 068 5 gusting 9 -0.0
2015-Mar-27 07:57 045 5 gusting 6 -0.0
2015-Mar-27 07:52 045 5 gusting 6 -0.0
2015-Mar-27 07:47 338 5 gusting 10 -0.6
2015-Mar-27 07:42 068 5 gusting 10 -0.6
2015-Mar-27 07:37 023 6 gusting 10 -0.6
2015-Mar-27 07:32 023 6 gusting 8 -0.6
2015-Mar-27 07:27 045 6 gusting 8 -0.6
2015-Mar-27 07:22 045 5 gusting 8 -0.6
2015-Mar-27 07:17 338 5 gusting 8 -1.1
2015-Mar-27 07:12 045 5 gusting 6 -1.1
2015-Mar-27 07:07 023 5 gusting 6 -1.1
2015-Mar-27 07:02 023 4 gusting 8 -1.1
2015-Mar-27 06:57 045 5 gusting 8 -1.7
2015-Mar-27 06:52 023 5 gusting 8 -1.7
2015-Mar-27 06:47 023 4 gusting 7 -1.7
2015-Mar-27 06:42 338 4 gusting 7 -2.2
2015-Mar-27 06:37 045 4 gusting 8 -2.2
2015-Mar-27 06:32 023 4 gusting 9 -2.2
2015-Mar-27 06:27 -2.2
2015-Mar-27 06:22 023 4 gusting 7 -2.8
2015-Mar-27 06:17 023 4 gusting 7 -2.8
2015-Mar-27 06:12 023 4 gusting 6 -3.3
2015-Mar-27 06:07 045 4 gusting 5 -3.3
2015-Mar-27 06:02 023 3 gusting 6 -3.9
2015-Mar-27 05:57 023 3 gusting 6 -3.9
2015-Mar-27 05:52 023 3 gusting 7 -3.9
2015-Mar-27 05:47 023 4 gusting 7 -3.9
2015-Mar-27 05:42 023 3 gusting 7 -4.4
2015-Mar-27 05:37 023 4 gusting 6 -4.4
2015-Mar-27 05:32 -5.0
2015-Mar-27 05:27 023 4 gusting 6 -5.0
2015-Mar-27 05:22 023 4 gusting 6 -5.6
2015-Mar-27 05:17 045 3 gusting 5 -5.6
2015-Mar-27 05:12 045 2 gusting 5 -6.1
2015-Mar-27 05:07 023 2 gusting 4 -6.7
2015-Mar-27 05:02 338 1 gusting 4 -6.7
2015-Mar-27 04:57 023 1 gusting 2 -7.2
2015-Mar-27 04:52 338 1 gusting 3 -7.2
2015-Mar-27 04:47 338 1 gusting 3 -7.2
2015-Mar-27 04:42 315 2 gusting 5 -7.2
2015-Mar-27 04:37 338 2 gusting 5 -7.2
2015-Mar-27 04:32 315 2 gusting 5 -7.8
2015-Mar-27 04:27 338 2 gusting 4 -7.8
2015-Mar-27 04:22 315 2 gusting 4 -8.3
2015-Mar-27 04:17 315 2 gusting 4 -8.3
2015-Mar-27 04:12 315 2 gusting 4 -8.3
2015-Mar-27 04:07 315 2 gusting 4 -8.3
2015-Mar-27 04:02 315 2 gusting 2 -8.3
2015-Mar-27 03:57 315 1 gusting 2 -8.3
2015-Mar-27 03:52 338 1 gusting 3 -8.3
2015-Mar-27 03:47 315 1 gusting 3 -8.3
2015-Mar-27 03:42 338 1 gusting 2 -8.3
2015-Mar-27 03:37 338 1 gusting 2 -8.9
2015-Mar-27 03:32 338 1 gusting 2 -8.9
2015-Mar-27 03:27 315 1 gusting 2 -8.9
2015-Mar-27 03:22 338 1 gusting 2 -8.9
2015-Mar-27 03:17 315 2 gusting 3 -8.9
2015-Mar-27 03:12 315 2 gusting 3 -9.4
2015-Mar-27 03:07 315 2 gusting 3 -9.4
2015-Mar-27 03:02 315 2 gusting 3 -9.4
2015-Mar-27 02:57 315 2 gusting 3 -9.4
2015-Mar-27 02:52 315 2 gusting 3 -9.4
2015-Mar-27 02:47 315 2 gusting 3 -9.4
2015-Mar-27 02:42 315 2 gusting 3 -9.4
2015-Mar-27 02:37 315 2 gusting 3 -9.4
2015-Mar-27 02:32 315 2 gusting 3 -9.4
2015-Mar-27 02:27 315 2 gusting 3 -9.4
2015-Mar-27 02:22 315 3 gusting 3 -9.4
2015-Mar-27 02:17 315 2 gusting 3 -9.4
2015-Mar-27 02:12 315 2 gusting 3 -9.4
2015-Mar-27 02:07 315 2 gusting 3 -9.4
2015-Mar-27 02:02 315 2 gusting 4 -9.4
2015-Mar-27 01:57 315 3 gusting 4 -8.9
2015-Mar-27 01:52 315 3 gusting 4 -9.4
2015-Mar-27 01:47 315 3 gusting 4 -9.4
2015-Mar-27 01:42 315 3 gusting 4 -9.4
2015-Mar-27 01:37 315 3 gusting 4 -9.4
2015-Mar-27 01:32 315 2 gusting 3 -9.4
2015-Mar-27 01:27 315 2 gusting 2 -9.4
2015-Mar-27 01:22 315 1 gusting 2 -9.4
2015-Mar-27 01:17 315 0 gusting 1 -9.4
2015-Mar-27 01:12 315 2 gusting 3 -9.4
2015-Mar-27 01:07 315 2 gusting 3 -9.4
2015-Mar-27 01:02 315 2 gusting 3 -9.4
2015-Mar-27 00:57 315 2 gusting 3 -9.4
2015-Mar-27 00:52 315 2 gusting 2 -9.4
2015-Mar-27 00:47 315 1 gusting 2 -9.4
2015-Mar-27 00:42 315 1 gusting 1 -9.4
2015-Mar-27 00:37 315 1 gusting 1 -9.4
2015-Mar-27 00:32 293 1 gusting 2 -9.4
2015-Mar-27 00:27 315 1 gusting 2 -9.4
2015-Mar-27 00:22 315 1 gusting 2 -9.4
2015-Mar-27 00:17 315 1 gusting 2 -8.9
2015-Mar-27 00:12 315 1 gusting 3 -9.4
2015-Mar-27 00:07 315 2 gusting 3 -8.9
2015-Mar-27 00:02 315 2 gusting 3 -8.9
2015-Mar-26 23:57 315 2 gusting 3 -8.9
2015-Mar-26 23:52 315 2 gusting 3 -8.9
2015-Mar-26 23:47 315 2 gusting 3 -8.9
2015-Mar-26 23:42 315 2 gusting 3 -8.9
2015-Mar-26 23:37 315 2 gusting 3 -8.9
2015-Mar-26 23:32 315 3 gusting 3 -8.9
2015-Mar-26 23:27 315 2 gusting 3 -8.9
2015-Mar-26 23:22 315 2 gusting 3 -8.9
2015-Mar-26 23:17 315 2 gusting 2 -8.9
2015-Mar-26 23:12 315 1 gusting 2 -8.9
2015-Mar-26 23:07 315 1 gusting 2 -8.9
2015-Mar-26 23:02 315 2 gusting 2 -8.9
2015-Mar-26 22:57 315 2 gusting 3 -8.9
2015-Mar-26 22:52 315 2 gusting 3 -8.9
2015-Mar-26 22:47 315 2 gusting 3 -8.9
2015-Mar-26 22:42 315 2 gusting 3 -8.9
2015-Mar-26 22:37 338 2 gusting 3 -8.9
2015-Mar-26 22:32 315 2 gusting 3 -8.9
2015-Mar-26 22:27 315 2 gusting 3 -8.9
2015-Mar-26 22:22 315 2 gusting 3 -8.9
2015-Mar-26 22:17 315 1 gusting 2 -8.9
2015-Mar-26 22:12 315 1 gusting 2 -8.3
2015-Mar-26 22:07 315 1 gusting 3 -8.3
2015-Mar-26 21:57 293 1 gusting 3 -8.3
2015-Mar-26 21:52 315 -8.3
2015-Mar-26 21:47 315 -8.3
2015-Mar-26 21:42 315 -8.3
2015-Mar-26 21:37 315 -8.3
2015-Mar-26 21:32 315 -7.8
2015-Mar-26 21:27 315 -7.8
2015-Mar-26 21:22 315 -7.8
2015-Mar-26 21:17 315 -7.8
2015-Mar-26 21:12 315 -7.8
2015-Mar-26 21:07 315 -7.8
2015-Mar-26 21:02 315 -7.2
2015-Mar-26 20:57 315 -7.2
2015-Mar-26 20:52 315 0 gusting 2 -7.2
2015-Mar-26 20:47 315 1 gusting 2 -7.2
2015-Mar-26 20:42 315 1 gusting 2 -7.2
2015-Mar-26 20:37 315 1 gusting 2 -7.2
2015-Mar-26 20:32 315 1 gusting 2 -7.2
2015-Mar-26 20:27 315 1 gusting 1 -7.2
2015-Mar-26 20:22 315 0 gusting 1 -6.7
2015-Mar-26 20:17 315 0 gusting 1 -6.7
2015-Mar-26 20:12 315 0 gusting 1 -6.7
2015-Mar-26 20:07 315 -6.7
2015-Mar-26 20:02 315 -6.7
2015-Mar-26 19:57 315 -6.1
2015-Mar-26 19:52 315 -6.1
2015-Mar-26 19:47 315 -6.1
2015-Mar-26 19:42 315 -6.1
2015-Mar-26 19:37 315 -6.1
2015-Mar-26 19:32 315 -5.6
2015-Mar-26 19:27 338 -5.6
2015-Mar-26 19:22 023 -5.6
2015-Mar-26 19:17 023 -5.6
2015-Mar-26 19:12 023 -5.6
2015-Mar-26 19:07 023 -5.0
2015-Mar-26 19:02 023 -5.0
2015-Mar-26 18:57 023 -5.0
2015-Mar-26 18:52 315 -4.4
2015-Mar-26 18:47 090 -5.0
2015-Mar-26 18:42 113 -4.4
2015-Mar-26 18:37 113 -4.4
2015-Mar-26 18:32 113 -4.4
2015-Mar-26 18:27 338 -4.4
2015-Mar-26 18:22 338 1 gusting 2 -4.4
2015-Mar-26 18:17 315 1 gusting 2 -3.9
2015-Mar-26 18:12 315 0 -3.9
2015-Mar-26 18:07 315 -3.9
2015-Mar-26 18:02 068 -3.3
2015-Mar-26 17:57 068 -3.3
2015-Mar-26 17:52 -3.3
2015-Mar-26 17:47 -3.3
2015-Mar-26 17:42 -2.8
2015-Mar-26 17:37 -2.8
2015-Mar-26 17:32 -2.8
2015-Mar-26 17:27 -2.2
2015-Mar-26 17:22 -2.2
2015-Mar-26 17:17 -2.2
2015-Mar-26 17:12 -1.7
2015-Mar-26 17:07 -1.7
2015-Mar-26 17:02 -1.7
2015-Mar-26 16:57 -1.1
2015-Mar-26 16:52 -1.1
2015-Mar-26 16:47 -1.1
2015-Mar-26 16:42 -0.6
2015-Mar-26 16:37 -0.6
2015-Mar-26 16:32 -0.6
2015-Mar-26 16:27 -0.0
2015-Mar-26 16:22 -0.0
2015-Mar-26 16:17 -0.0
2015-Mar-26 16:12 0.6
2015-Mar-26 16:07 0.6
2015-Mar-26 16:02 023 0.6
2015-Mar-26 15:57 023 0.6
2015-Mar-26 15:52 023 0 gusting 1 0.6
2015-Mar-26 15:47 1.1
2015-Mar-26 15:42 023 0 gusting 2 1.1
2015-Mar-26 15:37 023 0 gusting 2 1.1
2015-Mar-26 15:32 270 1 gusting 2 1.1
2015-Mar-26 15:27 045 0 gusting 2 1.1
2015-Mar-26 15:22 023 0 gusting 2 1.1
2015-Mar-26 15:17 045 0 gusting 2 1.7
2015-Mar-26 15:12 023 1 gusting 2 1.7
2015-Mar-26 15:07 068 1 gusting 4 1.7
2015-Mar-26 15:02 068 1 gusting 4 1.7
2015-Mar-26 14:57 045 1 gusting 4 1.7
2015-Mar-26 14:52 023 1 gusting 4 1.7
2015-Mar-26 14:47 045 1 gusting 4 1.7
2015-Mar-26 14:42 068 1 gusting 4 1.7
2015-Mar-26 14:37 023 2 gusting 4 1.7
2015-Mar-26 14:32 023 2 gusting 4 1.7
2015-Mar-26 14:27 023 2 gusting 4 2.2
2015-Mar-26 14:22 023 2 gusting 4 2.2
2015-Mar-26 14:17 023 1 gusting 2 2.2
2015-Mar-26 14:12 023 0 gusting 3 1.7
2015-Mar-26 14:07 090 0 gusting 3 1.7
2015-Mar-26 14:02 068 0 gusting 3 1.7
2015-Mar-26 13:57 068 0 gusting 1 1.7
2015-Mar-26 13:52 023 0 gusting 1 1.7
2015-Mar-26 13:47 113 0 gusting 2 1.7
2015-Mar-26 13:42 068 0 gusting 3 1.7
2015-Mar-26 13:37 180 0 gusting 4 1.7
2015-Mar-26 13:32 068 0 gusting 4 1.7
2015-Mar-26 13:27 023 1 gusting 4 1.7
2015-Mar-26 13:22 068 1 gusting 2 1.7
2015-Mar-26 13:17 090 1 gusting 3 1.7
2015-Mar-26 13:12 068 1 gusting 3 1.7
2015-Mar-26 13:07 023 1 gusting 3 1.7
2015-Mar-26 13:02 023 1 gusting 3 1.7
2015-Mar-26 12:57 113 0 gusting 3 1.7
2015-Mar-26 12:52 1.7
2015-Mar-26 12:47 158 0 gusting 3 1.7
2015-Mar-26 12:42 068 0 gusting 1 1.7
2015-Mar-26 12:37 068 0 gusting 1 1.1
2015-Mar-26 12:32 068 0 gusting 2 1.1
2015-Mar-26 12:27 090 0 gusting 4 1.1
2015-Mar-26 12:22 248 1 gusting 4 1.1
2015-Mar-26 12:17 113 1 gusting 4 1.1
2015-Mar-26 12:12 068 1 gusting 2 1.1
2015-Mar-26 12:07 158 1 gusting 2 0.6
2015-Mar-26 12:02 113 1 gusting 2 0.6
2015-Mar-26 11:57 158 1 gusting 3 0.6
2015-Mar-26 11:52 045 1 gusting 3 0.6
2015-Mar-26 11:47 045 1 gusting 3 0.6
2015-Mar-26 11:42 090 0 gusting 3 0.6
2015-Mar-26 11:37 338 0 gusting 3 0.6
2015-Mar-26 11:32 113 1 gusting 3 0.6
2015-Mar-26 11:27 090 1 gusting 3 0.6
2015-Mar-26 11:22 113 0 gusting 3 0.6
2015-Mar-26 11:17 315 1 gusting 2 0.6
2015-Mar-26 11:12 135 1 gusting 2 0.6
2015-Mar-26 11:07 068 0 gusting 2 0.6
2015-Mar-26 11:02 180 0 gusting 2 -0.0
2015-Mar-26 10:57 113 0 gusting 3 -0.0
2015-Mar-26 10:52 338 0 gusting 3 -0.0
2015-Mar-26 10:47 068 1 gusting 3 -0.0
2015-Mar-26 10:42 135 0 gusting 2 -0.0
2015-Mar-26 10:37 068 0 gusting 3 -0.0
2015-Mar-26 10:32 045 1 gusting 4 -0.0
2015-Mar-26 10:27 045 2 gusting 4 -0.0
2015-Mar-26 10:22 045 2 gusting 4 -0.0
2015-Mar-26 10:17 045 2 gusting 2 -0.0
2015-Mar-26 10:12 135 1 gusting 3 -0.6
2015-Mar-26 10:07 135 1 gusting 3 -0.6
2015-Mar-26 10:02 135 1 gusting 3 -0.6
2015-Mar-26 09:57 338 1 gusting 3 -0.6
2015-Mar-26 09:52 270 1 gusting 4 -0.6
2015-Mar-26 09:47 270 1 gusting 4 -0.6
2015-Mar-26 09:42 270 1 gusting 4 -1.1
2015-Mar-26 09:37 270 2 gusting 3 -1.1
2015-Mar-26 09:32 270 1 gusting 4 -1.1
2015-Mar-26 09:27 270 1 gusting 4 -1.1
2015-Mar-26 09:22 270 1 gusting 4 -1.1
2015-Mar-26 09:17 270 1 gusting 4 -1.1
2015-Mar-26 09:12 270 1 gusting 4 -1.7
2015-Mar-26 09:07 270 2 gusting 4 -1.7
2015-Mar-26 09:02 270 1 gusting 4 -1.7
2015-Mar-26 08:57 270 1 gusting 5 -1.7
2015-Mar-26 08:52 270 0 gusting 5 -2.2
2015-Mar-26 08:47 270 1 gusting 5 -2.2
2015-Mar-26 08:42 270 1 gusting 3 -2.2
2015-Mar-26 08:37 270 1 gusting 3 -2.8
2015-Mar-26 08:32 270 2 gusting 5 -3.3
2015-Mar-26 08:27 270 2 gusting 5 -3.3
2015-Mar-26 08:22 270 2 gusting 5 -3.9
2015-Mar-26 08:17 270 2 gusting 3 -3.9
2015-Mar-26 08:12 270 2 gusting 3 -4.4
2015-Mar-26 08:07 270 1 gusting 3 -5.0
2015-Mar-26 08:02 270 2 gusting 4 -5.6
2015-Mar-26 07:57 270 1 gusting 4 -5.6
2015-Mar-26 07:52 270 1 gusting 4 -6.1
2015-Mar-26 07:47 270 0 gusting 1 -6.1
2015-Mar-26 07:42 270 -6.7
2015-Mar-26 07:37 270 -7.2
2015-Mar-26 07:32 270 -7.8
2015-Mar-26 07:27 270 -8.3
2015-Mar-26 07:22 270 -8.3
2015-Mar-26 07:17 270 -8.9
2015-Mar-26 07:12 270 -9.4
2015-Mar-26 07:07 270 -9.4
2015-Mar-26 07:02 270 -10.0
2015-Mar-26 06:57 270 -10.0
2015-Mar-26 06:52 270 -10.6
2015-Mar-26 06:47 270 -11.1
2015-Mar-26 06:42 270 -11.1
2015-Mar-26 06:37 270 -11.7
2015-Mar-26 06:32 270 0 gusting 1 -12.2
2015-Mar-26 06:27 270 -12.2
2015-Mar-26 06:22 270 -12.8
2015-Mar-26 06:17 270 -12.8
2015-Mar-26 06:12 270 -13.3
2015-Mar-26 06:07 270 -13.3
2015-Mar-26 06:02 270 -13.9
2015-Mar-26 05:57 270 -13.9
2015-Mar-26 05:52 270 -14.4
2015-Mar-26 05:47 270 -14.4
2015-Mar-26 05:42 270 -15.0
2015-Mar-26 05:37 270 -15.0
2015-Mar-26 05:32 270 -15.0
2015-Mar-26 05:27 270 -15.0
2015-Mar-26 05:22 270 -15.6
2015-Mar-26 05:17 270 -15.6
2015-Mar-26 05:12 270 -15.6
2015-Mar-26 05:07 270 -15.6
2015-Mar-26 05:02 270 -15.6